Year,Month,Day,Hour,Minute,Value (Times are PST for temperature in C)
2010,06,30,00,00,11.70
2010,06,30,00,01,11.70
2010,06,30,00,02,11.70
2010,06,30,00,03,11.70
2010,06,30,00,04,11.70
2010,06,30,00,05,11.70
2010,06,30,00,06,11.70
2010,06,30,00,07,11.70
2010,06,30,00,08,11.70
2010,06,30,00,09,11.70
2010,06,30,00,10,11.70
2010,06,30,00,11,11.70
2010,06,30,00,12,11.70
2010,06,30,00,13,11.70
2010,06,30,00,14,11.70
2010,06,30,00,15,11.70
2010,06,30,00,16,11.70
2010,06,30,00,17,11.70
2010,06,30,00,18,11.70
2010,06,30,00,19,11.60
2010,06,30,00,20,11.60
2010,06,30,00,21,11.60
2010,06,30,00,22,11.50
2010,06,30,00,23,11.50
2010,06,30,00,24,11.50
2010,06,30,00,25,11.60
2010,06,30,00,26,11.60
2010,06,30,00,27,11.60
2010,06,30,00,28,11.60
2010,06,30,00,29,11.60
2010,06,30,00,30,11.60
2010,06,30,00,31,11.70
2010,06,30,00,32,11.70
2010,06,30,00,33,11.70
2010,06,30,00,34,11.70
2010,06,30,00,35,11.70
2010,06,30,00,36,11.70
2010,06,30,00,37,11.60
2010,06,30,00,38,11.70
2010,06,30,00,39,11.60
2010,06,30,00,40,11.70
2010,06,30,00,41,11.70
2010,06,30,00,42,11.70
2010,06,30,00,43,11.60
2010,06,30,00,44,11.60
2010,06,30,00,45,11.60
2010,06,30,00,46,11.60
2010,06,30,00,47,11.60
2010,06,30,00,48,11.60
2010,06,30,00,49,11.60
2010,06,30,00,50,11.60
2010,06,30,00,51,11.60
2010,06,30,00,52,11.60
2010,06,30,00,53,11.60
2010,06,30,00,54,11.60
2010,06,30,00,55,11.60
2010,06,30,00,56,11.60
2010,06,30,00,57,11.60
2010,06,30,00,58,11.60
2010,06,30,00,59,11.60
2010,06,30,01,00,11.60
2010,06,30,01,01,11.60
2010,06,30,01,02,11.60
2010,06,30,01,03,11.60
2010,06,30,01,04,11.50
2010,06,30,01,05,11.50
2010,06,30,01,06,11.50
2010,06,30,01,07,11.40
2010,06,30,01,08,11.40
2010,06,30,01,09,11.30
2010,06,30,01,10,11.30
2010,06,30,01,11,11.30
2010,06,30,01,12,11.20
2010,06,30,01,13,11.20
2010,06,30,01,14,11.20
2010,06,30,01,15,11.20
2010,06,30,01,16,11.20
2010,06,30,01,17,11.20
2010,06,30,01,18,11.20
2010,06,30,01,19,11.20
2010,06,30,01,20,11.20
2010,06,30,01,21,11.20
2010,06,30,01,22,11.20
2010,06,30,01,23,11.20
2010,06,30,01,24,11.20
2010,06,30,01,25,11.20
2010,06,30,01,26,11.10
2010,06,30,01,27,11.10
2010,06,30,01,28,11.10
2010,06,30,01,29,11.10
2010,06,30,01,30,11.10
2010,06,30,01,31,11.00
2010,06,30,01,32,11.00
2010,06,30,01,33,11.00
2010,06,30,01,34,11.00
2010,06,30,01,35,11.00
2010,06,30,01,36,11.00
2010,06,30,01,37,11.10
2010,06,30,01,38,11.10
2010,06,30,01,39,11.10
2010,06,30,01,40,11.10
2010,06,30,01,41,11.10
2010,06,30,01,42,11.10
2010,06,30,01,43,11.10
2010,06,30,01,44,11.20
2010,06,30,01,45,11.20
2010,06,30,01,46,11.20
2010,06,30,01,47,11.20
2010,06,30,01,48,11.20
2010,06,30,01,49,11.20
2010,06,30,01,50,11.20
2010,06,30,01,51,11.20
2010,06,30,01,52,11.20
2010,06,30,01,53,11.20
2010,06,30,01,54,11.20
2010,06,30,01,55,11.20
2010,06,30,01,56,11.20
2010,06,30,01,57,11.20
2010,06,30,01,58,11.20
2010,06,30,01,59,11.30
2010,06,30,02,00,11.30
2010,06,30,02,01,11.40
2010,06,30,02,02,11.40
2010,06,30,02,03,11.50
2010,06,30,02,04,11.50
2010,06,30,02,05,11.50
2010,06,30,02,06,11.50
2010,06,30,02,07,11.50
2010,06,30,02,08,11.50
2010,06,30,02,09,11.50
2010,06,30,02,10,11.50
2010,06,30,02,11,11.50
2010,06,30,02,12,11.40
2010,06,30,02,13,11.30
2010,06,30,02,14,11.20
2010,06,30,02,15,11.20
2010,06,30,02,16,11.20
2010,06,30,02,17,11.10
2010,06,30,02,18,11.10
2010,06,30,02,19,11.00
2010,06,30,02,20,11.00
2010,06,30,02,21,10.90
2010,06,30,02,22,10.90
2010,06,30,02,23,10.90
2010,06,30,02,24,10.90
2010,06,30,02,25,10.80
2010,06,30,02,26,10.80
2010,06,30,02,27,10.80
2010,06,30,02,28,10.80
2010,06,30,02,29,10.80
2010,06,30,02,30,10.80
2010,06,30,02,31,10.80
2010,06,30,02,32,10.80
2010,06,30,02,33,10.80
2010,06,30,02,34,10.80
2010,06,30,02,35,10.80
2010,06,30,02,36,10.80
2010,06,30,02,37,10.70
2010,06,30,02,38,10.80
2010,06,30,02,39,10.80
2010,06,30,02,40,10.80
2010,06,30,02,41,10.80
2010,06,30,02,42,10.70
2010,06,30,02,43,10.80
2010,06,30,02,44,10.80
2010,06,30,02,45,10.80
2010,06,30,02,46,10.90
2010,06,30,02,47,11.00
2010,06,30,02,48,11.10
2010,06,30,02,49,11.10
2010,06,30,02,50,11.20
2010,06,30,02,51,11.20
2010,06,30,02,52,11.20
2010,06,30,02,53,11.20
2010,06,30,02,54,11.20
2010,06,30,02,55,11.30
2010,06,30,02,56,11.30
2010,06,30,02,57,11.30
2010,06,30,02,58,11.30
2010,06,30,02,59,11.30
2010,06,30,03,00,11.30
2010,06,30,03,01,11.30
2010,06,30,03,02,11.40
2010,06,30,03,06,11.40
2010,06,30,03,07,11.40
2010,06,30,03,08,11.40
2010,06,30,03,09,11.40
2010,06,30,03,10,11.40
2010,06,30,03,11,11.40
2010,06,30,03,12,11.40
2010,06,30,03,13,11.40
2010,06,30,03,14,11.40
2010,06,30,03,15,11.40
2010,06,30,03,16,11.40
2010,06,30,03,17,11.40
2010,06,30,03,18,11.40
2010,06,30,03,19,11.40
2010,06,30,03,20,11.40
2010,06,30,03,21,11.40
2010,06,30,03,22,11.40
2010,06,30,03,23,11.40
2010,06,30,03,24,11.40
2010,06,30,03,25,11.40
2010,06,30,03,26,11.40
2010,06,30,03,27,11.30
2010,06,30,03,28,11.30
2010,06,30,03,29,11.30
2010,06,30,03,30,11.30
2010,06,30,03,31,11.30
2010,06,30,03,32,11.30
2010,06,30,03,33,11.30
2010,06,30,03,34,11.30
2010,06,30,03,35,11.30
2010,06,30,03,36,11.30
2010,06,30,03,37,11.30
2010,06,30,03,38,11.30
2010,06,30,03,39,11.30
2010,06,30,03,40,11.30
2010,06,30,03,41,11.30
2010,06,30,03,42,11.30
2010,06,30,03,43,11.30
2010,06,30,03,44,11.30
2010,06,30,03,45,11.30
2010,06,30,03,46,11.30
2010,06,30,03,47,11.30
2010,06,30,03,48,11.30
2010,06,30,03,49,11.30
2010,06,30,03,50,11.30
2010,06,30,03,51,11.30
2010,06,30,03,52,11.30
2010,06,30,03,53,11.30
2010,06,30,03,54,11.30
2010,06,30,03,55,11.30
2010,06,30,03,56,11.30
2010,06,30,03,57,11.30
2010,06,30,03,58,11.30
2010,06,30,03,59,11.30
2010,06,30,04,00,11.30
2010,06,30,04,01,11.30
2010,06,30,04,02,11.30
2010,06,30,04,03,11.30
2010,06,30,04,04,11.30
2010,06,30,04,05,11.30
2010,06,30,04,06,11.30
2010,06,30,04,07,11.30
2010,06,30,04,08,11.30
2010,06,30,04,09,11.30
2010,06,30,04,10,11.30
2010,06,30,04,11,11.30
2010,06,30,04,12,11.30
2010,06,30,04,13,11.30
2010,06,30,04,14,11.30
2010,06,30,04,15,11.30
2010,06,30,04,16,11.30
2010,06,30,04,17,11.30
2010,06,30,04,18,11.30
2010,06,30,04,19,11.30
2010,06,30,04,20,11.30
2010,06,30,04,21,11.20
2010,06,30,04,22,11.20
2010,06,30,04,23,11.20
2010,06,30,04,24,11.20
2010,06,30,04,25,11.20
2010,06,30,04,26,11.10
2010,06,30,04,27,11.10
2010,06,30,04,28,11.10
2010,06,30,04,29,11.10
2010,06,30,04,30,11.10
2010,06,30,04,31,11.10
2010,06,30,04,32,11.00
2010,06,30,04,33,11.00
2010,06,30,04,34,11.00
2010,06,30,04,35,10.90
2010,06,30,04,36,10.90
2010,06,30,04,37,10.90
2010,06,30,04,38,10.80
2010,06,30,04,39,10.80
2010,06,30,04,40,10.80
2010,06,30,04,41,10.70
2010,06,30,04,42,10.70
2010,06,30,04,43,10.70
2010,06,30,04,44,10.70
2010,06,30,04,45,10.60
2010,06,30,04,46,10.50
2010,06,30,04,47,10.50
2010,06,30,04,48,10.40
2010,06,30,04,49,10.30
2010,06,30,04,50,10.30
2010,06,30,04,51,10.30
2010,06,30,04,52,10.30
2010,06,30,04,53,10.20
2010,06,30,04,54,10.10
2010,06,30,04,55,10.00
2010,06,30,04,56,9.90
2010,06,30,04,57,9.80
2010,06,30,04,58,9.70
2010,06,30,04,59,9.70
2010,06,30,05,00,9.60
2010,06,30,05,01,9.60
2010,06,30,05,02,9.60
2010,06,30,05,03,9.60
2010,06,30,05,04,9.50
2010,06,30,05,05,9.50
2010,06,30,05,06,9.50
2010,06,30,05,07,9.40
2010,06,30,05,08,9.40
2010,06,30,05,09,9.40
2010,06,30,05,10,9.30
2010,06,30,05,11,9.30
2010,06,30,05,12,9.30
2010,06,30,05,13,9.30
2010,06,30,05,14,9.30
2010,06,30,05,15,9.30
2010,06,30,05,16,9.30
2010,06,30,05,17,9.30
2010,06,30,05,18,9.30
2010,06,30,05,19,9.40
2010,06,30,05,20,9.40
2010,06,30,05,21,9.40
2010,06,30,05,22,9.40
2010,06,30,05,23,9.40
2010,06,30,05,24,9.40
2010,06,30,05,25,9.40
2010,06,30,05,26,9.30
2010,06,30,05,27,9.30
2010,06,30,05,28,9.20
2010,06,30,05,29,9.10
2010,06,30,05,30,9.00
2010,06,30,05,31,8.80
2010,06,30,05,32,8.80
2010,06,30,05,33,8.70
2010,06,30,05,34,8.60
2010,06,30,05,35,8.60
2010,06,30,05,36,8.50
2010,06,30,05,37,8.50
2010,06,30,05,38,8.40
2010,06,30,05,39,8.50
2010,06,30,05,40,8.50
2010,06,30,05,41,8.50
2010,06,30,05,42,8.60
2010,06,30,05,43,8.60
2010,06,30,05,44,8.60
2010,06,30,05,45,8.60
2010,06,30,05,46,8.60
2010,06,30,05,47,8.60
2010,06,30,05,48,8.60
2010,06,30,05,49,8.60
2010,06,30,05,50,8.60
2010,06,30,05,51,8.50
2010,06,30,05,52,8.40
2010,06,30,05,53,8.40
2010,06,30,05,54,8.40
2010,06,30,05,55,8.30
2010,06,30,05,56,8.30
2010,06,30,05,57,8.30
2010,06,30,05,58,8.30
2010,06,30,05,59,8.30
2010,06,30,06,00,8.30
2010,06,30,06,01,8.20
2010,06,30,06,02,8.20
2010,06,30,06,03,8.20
2010,06,30,06,04,8.20
2010,06,30,06,05,8.20
2010,06,30,06,06,8.20
2010,06,30,06,07,8.20
2010,06,30,06,08,8.20
2010,06,30,06,09,8.20
2010,06,30,06,10,8.10
2010,06,30,06,11,8.10
2010,06,30,06,12,8.10
2010,06,30,06,13,8.10
2010,06,30,06,14,8.10
2010,06,30,06,15,8.10
2010,06,30,06,16,8.10
2010,06,30,06,17,8.10
2010,06,30,06,18,8.10
2010,06,30,06,19,8.10
2010,06,30,06,20,8.10
2010,06,30,06,21,8.10
2010,06,30,06,22,8.10
2010,06,30,06,23,8.10
2010,06,30,06,24,8.10
2010,06,30,06,25,8.10
2010,06,30,06,26,8.20
2010,06,30,06,27,8.20
2010,06,30,06,28,8.20
2010,06,30,06,29,8.20
2010,06,30,06,30,8.20
2010,06,30,06,31,8.20
2010,06,30,06,32,8.20
2010,06,30,06,33,8.20
2010,06,30,06,34,8.20
2010,06,30,06,35,8.20
2010,06,30,06,36,8.20
2010,06,30,06,37,8.20
2010,06,30,06,38,8.20
2010,06,30,06,39,8.20
2010,06,30,06,40,8.20
2010,06,30,06,41,8.20
2010,06,30,06,42,8.20
2010,06,30,06,43,8.10
2010,06,30,06,44,8.10
2010,06,30,06,45,8.10
2010,06,30,06,46,8.00
2010,06,30,06,47,8.00
2010,06,30,06,48,8.00
2010,06,30,06,49,8.00
2010,06,30,06,50,8.00
2010,06,30,06,51,8.00
2010,06,30,06,52,8.00
2010,06,30,06,53,8.10
2010,06,30,06,54,8.10
2010,06,30,06,55,8.20
2010,06,30,06,56,8.20
2010,06,30,06,57,8.30
2010,06,30,06,58,8.30
2010,06,30,06,59,8.40
2010,06,30,07,00,8.50
2010,06,30,07,01,8.60
2010,06,30,07,02,8.60
2010,06,30,07,03,8.70
2010,06,30,07,04,8.80
2010,06,30,07,05,8.80
2010,06,30,07,06,8.90
2010,06,30,07,07,8.90
2010,06,30,07,08,8.90
2010,06,30,07,09,8.90
2010,06,30,07,10,8.90
2010,06,30,07,11,8.90
2010,06,30,07,12,9.00
2010,06,30,07,13,9.00
2010,06,30,07,14,9.10
2010,06,30,07,15,9.10
2010,06,30,07,16,9.20
2010,06,30,07,17,9.30
2010,06,30,07,18,9.30
2010,06,30,07,19,9.40
2010,06,30,07,20,9.50
2010,06,30,07,21,9.60
2010,06,30,07,22,9.70
2010,06,30,07,23,9.80
2010,06,30,07,24,9.90
2010,06,30,07,25,10.00
2010,06,30,07,26,10.10
2010,06,30,07,27,10.20
2010,06,30,07,28,10.30
2010,06,30,07,29,10.40
2010,06,30,07,30,10.50
2010,06,30,07,31,10.60
2010,06,30,07,32,10.70
2010,06,30,07,33,10.70
2010,06,30,07,34,10.80
2010,06,30,07,35,10.90
2010,06,30,07,36,10.90
2010,06,30,07,37,11.00
2010,06,30,07,38,11.10
2010,06,30,07,39,11.10
2010,06,30,07,40,11.10
2010,06,30,07,41,11.20
2010,06,30,07,42,11.30
2010,06,30,07,43,11.30
2010,06,30,07,44,11.40
2010,06,30,07,45,11.40
2010,06,30,07,46,11.40
2010,06,30,07,47,11.50
2010,06,30,07,48,11.50
2010,06,30,07,49,11.50
2010,06,30,07,50,11.50
2010,06,30,07,51,11.60
2010,06,30,07,52,11.70
2010,06,30,07,53,11.80
2010,06,30,07,54,11.90
2010,06,30,07,55,11.90
2010,06,30,07,56,12.00
2010,06,30,07,57,12.10
2010,06,30,07,58,12.10
2010,06,30,07,59,12.20
2010,06,30,08,00,12.30
2010,06,30,08,01,12.30
2010,06,30,08,02,12.40
2010,06,30,08,03,12.40
2010,06,30,08,04,12.50
2010,06,30,08,05,12.60
2010,06,30,08,06,12.70
2010,06,30,08,07,12.70
2010,06,30,08,08,12.80
2010,06,30,08,09,12.90
2010,06,30,08,10,12.90
2010,06,30,08,11,12.90
2010,06,30,08,12,12.90
2010,06,30,08,13,12.90
2010,06,30,08,14,12.90
2010,06,30,08,15,12.90
2010,06,30,08,16,13.00
2010,06,30,08,17,13.00
2010,06,30,08,18,13.10
2010,06,30,08,19,13.20
2010,06,30,08,20,13.20
2010,06,30,08,21,13.30
2010,06,30,08,22,13.30
2010,06,30,08,23,13.30
2010,06,30,08,24,13.30
2010,06,30,08,25,13.40
2010,06,30,08,26,13.40
2010,06,30,08,27,13.40
2010,06,30,08,28,13.50
2010,06,30,08,29,13.50
2010,06,30,08,30,13.40
2010,06,30,08,31,13.30
2010,06,30,08,32,13.20
2010,06,30,08,33,13.20
2010,06,30,08,34,13.20
2010,06,30,08,35,13.30
2010,06,30,08,36,13.30
2010,06,30,08,37,13.30
2010,06,30,08,38,13.30
2010,06,30,08,39,13.30
2010,06,30,08,40,13.30
2010,06,30,08,41,13.30
2010,06,30,08,42,13.30
2010,06,30,08,43,13.30
2010,06,30,08,44,13.40
2010,06,30,08,45,13.40
2010,06,30,08,46,13.50
2010,06,30,08,47,13.60
2010,06,30,08,48,13.70
2010,06,30,08,49,13.70
2010,06,30,08,50,13.70
2010,06,30,08,51,13.60
2010,06,30,08,52,13.60
2010,06,30,08,53,13.60
2010,06,30,08,54,13.60
2010,06,30,08,55,13.60
2010,06,30,08,56,13.50
2010,06,30,08,57,13.50
2010,06,30,08,58,13.50
2010,06,30,08,59,13.50
2010,06,30,09,00,13.50
2010,06,30,09,01,13.50
2010,06,30,09,02,13.50
2010,06,30,09,03,13.50
2010,06,30,09,04,13.50
2010,06,30,09,05,13.50
2010,06,30,09,06,13.60
2010,06,30,09,07,13.60
2010,06,30,09,08,13.70
2010,06,30,09,09,13.80
2010,06,30,09,10,13.80
2010,06,30,09,11,13.70
2010,06,30,09,12,13.70
2010,06,30,09,13,13.70
2010,06,30,09,14,13.70
2010,06,30,09,15,13.80
2010,06,30,09,16,13.90
2010,06,30,09,17,14.00
2010,06,30,09,18,14.10
2010,06,30,09,19,14.20
2010,06,30,09,20,14.20
2010,06,30,09,21,14.30
2010,06,30,09,22,14.30
2010,06,30,09,23,14.30
2010,06,30,09,24,14.40
2010,06,30,09,25,14.50
2010,06,30,09,26,14.50
2010,06,30,09,27,14.60
2010,06,30,09,28,14.70
2010,06,30,09,29,14.70
2010,06,30,09,30,14.70
2010,06,30,09,31,14.70
2010,06,30,09,32,14.80
2010,06,30,09,33,14.80
2010,06,30,09,34,14.90
2010,06,30,09,35,15.00
2010,06,30,09,36,15.00
2010,06,30,09,37,15.00
2010,06,30,09,38,15.00
2010,06,30,09,39,15.10
2010,06,30,09,40,15.10
2010,06,30,09,41,15.10
2010,06,30,09,42,15.20
2010,06,30,09,43,15.20
2010,06,30,09,44,15.30
2010,06,30,09,45,15.30
2010,06,30,09,46,15.20
2010,06,30,09,47,15.20
2010,06,30,09,48,15.00
2010,06,30,09,49,14.90
2010,06,30,09,50,14.80
2010,06,30,09,51,14.60
2010,06,30,09,52,14.50
2010,06,30,09,53,14.50
2010,06,30,09,54,14.40
2010,06,30,09,55,14.40
2010,06,30,09,56,14.40
2010,06,30,09,57,14.30
2010,06,30,09,58,14.30
2010,06,30,09,59,14.40
2010,06,30,10,00,14.40
2010,06,30,10,01,14.50
2010,06,30,10,02,14.50
2010,06,30,10,03,14.50
2010,06,30,10,04,14.50
2010,06,30,10,05,14.50
2010,06,30,10,06,14.40
2010,06,30,10,07,14.30
2010,06,30,10,08,14.30
2010,06,30,10,09,14.30
2010,06,30,10,10,14.30
2010,06,30,10,11,14.30
2010,06,30,10,12,14.30
2010,06,30,10,13,14.40
2010,06,30,10,14,14.40
2010,06,30,10,15,14.50
2010,06,30,10,16,14.50
2010,06,30,10,17,14.50
2010,06,30,10,18,14.60
2010,06,30,10,19,14.60
2010,06,30,10,20,14.70
2010,06,30,10,21,14.70
2010,06,30,10,22,14.70
2010,06,30,10,23,14.70
2010,06,30,10,24,14.70
2010,06,30,10,25,14.70
2010,06,30,10,26,14.60
2010,06,30,10,27,14.60
2010,06,30,10,28,14.60
2010,06,30,10,29,14.60
2010,06,30,10,30,14.60
2010,06,30,10,31,14.60
2010,06,30,10,32,14.60
2010,06,30,10,33,14.60
2010,06,30,10,34,14.60
2010,06,30,10,35,14.70
2010,06,30,10,36,14.70
2010,06,30,10,37,14.80
2010,06,30,10,38,14.80
2010,06,30,10,39,14.80
2010,06,30,10,40,14.90
2010,06,30,10,41,15.00
2010,06,30,10,42,15.00
2010,06,30,10,43,15.10
2010,06,30,10,44,15.20
2010,06,30,10,45,15.20
2010,06,30,10,46,15.20
2010,06,30,10,47,15.20
2010,06,30,10,48,15.20
2010,06,30,10,49,15.20
2010,06,30,10,50,15.20
2010,06,30,10,51,15.50
2010,06,30,10,52,15.50
2010,06,30,10,53,15.50
2010,06,30,10,54,15.60
2010,06,30,10,55,15.60
2010,06,30,10,56,15.70
2010,06,30,10,57,15.70
2010,06,30,10,58,15.70
2010,06,30,10,59,15.80
2010,06,30,11,00,15.80
2010,06,30,11,01,15.80
2010,06,30,11,02,15.70
2010,06,30,11,03,15.70
2010,06,30,11,04,15.60
2010,06,30,11,05,15.60
2010,06,30,11,06,15.60
2010,06,30,11,07,15.60
2010,06,30,11,08,15.60
2010,06,30,11,09,15.70
2010,06,30,11,10,15.70
2010,06,30,11,11,15.70
2010,06,30,11,12,15.60
2010,06,30,11,13,15.60
2010,06,30,11,14,15.60
2010,06,30,11,15,15.60
2010,06,30,11,16,15.60
2010,06,30,11,17,15.60
2010,06,30,11,18,15.60
2010,06,30,11,19,15.60
2010,06,30,11,20,15.60
2010,06,30,11,21,15.60
2010,06,30,11,22,15.50
2010,06,30,11,23,15.50
2010,06,30,11,24,15.30
2010,06,30,11,25,15.30
2010,06,30,11,26,15.20
2010,06,30,11,27,15.30
2010,06,30,11,28,15.30
2010,06,30,11,29,15.30
2010,06,30,11,30,15.30
2010,06,30,11,31,15.30
2010,06,30,11,32,15.30
2010,06,30,11,33,15.30
2010,06,30,11,34,15.30
2010,06,30,11,35,15.20
2010,06,30,11,36,15.30
2010,06,30,11,37,15.30
2010,06,30,11,38,15.30
2010,06,30,11,39,15.30
2010,06,30,11,40,15.30
2010,06,30,11,41,15.30
2010,06,30,11,42,15.40
2010,06,30,11,43,15.40
2010,06,30,11,44,15.40
2010,06,30,11,45,15.40
2010,06,30,11,46,15.30
2010,06,30,11,47,15.30
2010,06,30,11,48,15.30
2010,06,30,11,49,15.40
2010,06,30,11,50,15.50
2010,06,30,11,51,15.50
2010,06,30,11,52,15.50
2010,06,30,11,53,15.50
2010,06,30,11,54,15.60
2010,06,30,11,55,15.70
2010,06,30,11,56,15.70
2010,06,30,11,57,15.80
2010,06,30,11,58,15.80
2010,06,30,11,59,15.90
2010,06,30,12,00,15.90
2010,06,30,12,01,15.80
2010,06,30,12,02,15.70
2010,06,30,12,03,15.70
2010,06,30,12,04,15.70
2010,06,30,12,05,15.80
2010,06,30,12,06,15.80
2010,06,30,12,07,15.80
2010,06,30,12,08,15.80
2010,06,30,12,09,15.80
2010,06,30,12,10,15.80
2010,06,30,12,11,15.90
2010,06,30,12,12,16.00
2010,06,30,12,13,16.10
2010,06,30,12,14,16.20
2010,06,30,12,15,16.20
2010,06,30,12,16,16.30
2010,06,30,12,17,16.30
2010,06,30,12,18,16.20
2010,06,30,12,19,16.20
2010,06,30,12,20,16.30
2010,06,30,12,21,16.30
2010,06,30,12,22,16.40
2010,06,30,12,23,16.40
2010,06,30,12,24,16.40
2010,06,30,12,25,16.40
2010,06,30,12,26,16.40
2010,06,30,12,27,16.40
2010,06,30,12,28,16.40
2010,06,30,12,29,16.40
2010,06,30,12,30,16.10
2010,06,30,12,31,16.10
2010,06,30,12,32,16.20
2010,06,30,12,33,16.20
2010,06,30,12,34,16.30
2010,06,30,12,35,16.20
2010,06,30,12,36,16.10
2010,06,30,12,37,16.00
2010,06,30,12,38,16.00
2010,06,30,12,39,16.00
2010,06,30,12,40,16.00
2010,06,30,12,41,15.90
2010,06,30,12,42,15.90
2010,06,30,12,43,15.80
2010,06,30,12,44,15.70
2010,06,30,12,45,15.80
2010,06,30,12,46,15.80
2010,06,30,12,47,15.80
2010,06,30,12,48,15.80
2010,06,30,12,49,15.90
2010,06,30,12,50,15.90
2010,06,30,12,51,16.00
2010,06,30,12,52,16.10
2010,06,30,12,53,16.20
2010,06,30,12,54,16.30
2010,06,30,12,55,16.30
2010,06,30,12,56,16.30
2010,06,30,12,57,16.30
2010,06,30,12,58,16.20
2010,06,30,12,59,16.20
2010,06,30,13,00,16.10
2010,06,30,13,01,16.00
2010,06,30,13,02,15.90
2010,06,30,13,03,15.90
2010,06,30,13,04,15.90
2010,06,30,13,05,15.90
2010,06,30,13,06,15.90
2010,06,30,13,07,15.90
2010,06,30,13,08,16.00
2010,06,30,13,09,16.20
2010,06,30,13,10,16.30
2010,06,30,13,11,16.40
2010,06,30,13,12,16.50
2010,06,30,13,13,16.60
2010,06,30,13,14,16.70
2010,06,30,13,15,16.70
2010,06,30,13,16,16.70
2010,06,30,13,17,16.70
2010,06,30,13,18,16.60
2010,06,30,13,19,16.70
2010,06,30,13,20,16.80
2010,06,30,13,21,16.90
2010,06,30,13,22,16.90
2010,06,30,13,23,16.90
2010,06,30,13,24,16.90
2010,06,30,13,25,16.90
2010,06,30,13,26,17.00
2010,06,30,13,27,17.10
2010,06,30,13,28,17.20
2010,06,30,13,29,17.30
2010,06,30,13,30,17.30
2010,06,30,13,31,17.30
2010,06,30,13,32,17.30
2010,06,30,13,33,17.30
2010,06,30,13,34,17.20
2010,06,30,13,35,17.20
2010,06,30,13,36,17.20
2010,06,30,13,37,17.10
2010,06,30,13,38,17.00
2010,06,30,13,39,16.90
2010,06,30,13,40,16.90
2010,06,30,13,41,17.00
2010,06,30,13,42,17.10
2010,06,30,13,43,17.20
2010,06,30,13,44,17.10
2010,06,30,13,45,17.10
2010,06,30,13,46,17.00
2010,06,30,13,47,16.90
2010,06,30,13,48,16.90
2010,06,30,13,49,16.90
2010,06,30,13,50,17.00
2010,06,30,13,51,17.10
2010,06,30,13,52,17.20
2010,06,30,13,53,17.30
2010,06,30,13,54,17.30
2010,06,30,13,55,17.40
2010,06,30,13,56,17.30
2010,06,30,13,57,17.30
2010,06,30,13,58,17.20
2010,06,30,13,59,17.20
2010,06,30,14,00,17.20
2010,06,30,14,01,17.00
2010,06,30,14,02,16.80
2010,06,30,14,03,16.60
2010,06,30,14,04,16.50
2010,06,30,14,05,16.40
2010,06,30,14,06,16.40
2010,06,30,14,07,16.50
2010,06,30,14,08,16.60
2010,06,30,14,09,16.60
2010,06,30,14,10,16.60
2010,06,30,14,11,16.50
2010,06,30,14,12,16.50
2010,06,30,14,13,16.40
2010,06,30,14,14,16.30
2010,06,30,14,15,16.30
2010,06,30,14,16,16.50
2010,06,30,14,17,16.60
2010,06,30,14,18,16.60
2010,06,30,14,19,16.70
2010,06,30,14,20,16.70
2010,06,30,14,21,16.70
2010,06,30,14,22,16.70
2010,06,30,14,23,16.70
2010,06,30,14,24,16.80
2010,06,30,14,25,17.00
2010,06,30,14,26,17.20
2010,06,30,14,27,17.30
2010,06,30,14,28,17.30
2010,06,30,14,29,17.30
2010,06,30,14,30,17.40
2010,06,30,14,31,17.40
2010,06,30,14,32,17.40
2010,06,30,14,33,17.40
2010,06,30,14,34,17.30
2010,06,30,14,35,17.30
2010,06,30,14,36,17.20
2010,06,30,14,37,17.30
2010,06,30,14,38,17.30
2010,06,30,14,39,17.40
2010,06,30,14,40,17.50
2010,06,30,14,41,17.60
2010,06,30,14,42,17.60
2010,06,30,14,43,17.80
2010,06,30,14,44,17.90
2010,06,30,14,45,17.90
2010,06,30,14,46,17.90
2010,06,30,14,47,17.80
2010,06,30,14,48,17.80
2010,06,30,14,49,17.80
2010,06,30,14,50,17.60
2010,06,30,14,51,17.50
2010,06,30,14,52,17.40
2010,06,30,14,53,17.40
2010,06,30,14,54,17.30
2010,06,30,14,55,17.40
2010,06,30,14,56,17.40
2010,06,30,14,57,17.40
2010,06,30,14,58,17.50
2010,06,30,14,59,17.60
2010,06,30,15,00,17.70
2010,06,30,15,01,17.60
2010,06,30,15,02,17.60
2010,06,30,15,03,17.50
2010,06,30,15,04,17.50
2010,06,30,15,05,17.60
2010,06,30,15,06,17.70
2010,06,30,15,07,17.70
2010,06,30,15,08,17.80
2010,06,30,15,09,17.90
2010,06,30,15,10,18.00
2010,06,30,15,11,18.10
2010,06,30,15,12,18.10
2010,06,30,15,13,18.10
2010,06,30,15,14,18.10
2010,06,30,15,15,18.10
2010,06,30,15,16,18.10
2010,06,30,15,17,18.10
2010,06,30,15,18,18.00
2010,06,30,15,19,17.90
2010,06,30,15,20,17.80
2010,06,30,15,21,17.70
2010,06,30,15,22,17.60
2010,06,30,15,23,17.60
2010,06,30,15,24,17.60
2010,06,30,15,25,17.70
2010,06,30,15,26,17.80
2010,06,30,15,27,17.70
2010,06,30,15,28,17.70
2010,06,30,15,29,17.70
2010,06,30,15,30,17.80
2010,06,30,15,31,17.90
2010,06,30,15,32,17.90
2010,06,30,15,33,17.80
2010,06,30,15,34,17.80
2010,06,30,15,35,17.90
2010,06,30,15,36,17.90
2010,06,30,15,37,17.90
2010,06,30,15,38,17.90
2010,06,30,15,39,17.80
2010,06,30,15,40,17.70
2010,06,30,15,41,17.70
2010,06,30,15,42,17.70
2010,06,30,15,43,17.70
2010,06,30,15,44,17.70
2010,06,30,15,45,17.80
2010,06,30,15,46,17.90
2010,06,30,15,47,18.00
2010,06,30,15,48,18.10
2010,06,30,15,49,18.10
2010,06,30,15,50,18.20
2010,06,30,15,51,18.30
2010,06,30,15,52,18.30
2010,06,30,15,53,18.30
2010,06,30,15,54,18.30
2010,06,30,15,55,18.40
2010,06,30,15,56,18.40
2010,06,30,15,57,18.40
2010,06,30,15,58,18.30
2010,06,30,15,59,18.30
2010,06,30,16,00,18.30
2010,06,30,16,01,18.20
2010,06,30,16,02,18.10
2010,06,30,16,03,18.10
2010,06,30,16,04,18.10
2010,06,30,16,05,18.20
2010,06,30,16,06,18.20
2010,06,30,16,07,18.20
2010,06,30,16,08,18.20
2010,06,30,16,09,18.20
2010,06,30,16,10,18.20
2010,06,30,16,11,18.20
2010,06,30,16,12,18.20
2010,06,30,16,13,18.20
2010,06,30,16,14,18.20
2010,06,30,16,15,18.20
2010,06,30,16,16,18.20
2010,06,30,16,17,18.20
2010,06,30,16,18,18.20
2010,06,30,16,19,18.20
2010,06,30,16,20,18.30
2010,06,30,16,21,18.50
2010,06,30,16,22,18.50
2010,06,30,16,23,18.40
2010,06,30,16,24,18.40
2010,06,30,16,25,18.50
2010,06,30,16,26,18.40
2010,06,30,16,27,18.40
2010,06,30,16,28,18.50
2010,06,30,16,29,18.50
2010,06,30,16,30,18.50
2010,06,30,16,31,18.60
2010,06,30,16,32,18.60
2010,06,30,16,33,18.70
2010,06,30,16,34,18.80
2010,06,30,16,35,18.90
2010,06,30,16,36,18.70
2010,06,30,16,37,18.50
2010,06,30,16,38,18.40
2010,06,30,16,39,18.30
2010,06,30,16,40,18.40
2010,06,30,16,41,18.40
2010,06,30,16,42,18.40
2010,06,30,16,43,18.40
2010,06,30,16,44,18.30
2010,06,30,16,45,18.30
2010,06,30,16,46,18.20
2010,06,30,16,47,18.20
2010,06,30,16,48,18.30
2010,06,30,16,49,18.30
2010,06,30,16,50,18.30
2010,06,30,16,51,18.30
2010,06,30,16,52,18.30
2010,06,30,16,53,18.30
2010,06,30,16,54,18.20
2010,06,30,16,55,18.20
2010,06,30,16,56,18.20
2010,06,30,16,57,18.20
2010,06,30,16,58,18.20
2010,06,30,16,59,18.30
2010,06,30,17,00,18.30
2010,06,30,17,01,18.30
2010,06,30,17,02,18.30
2010,06,30,17,03,18.30
2010,06,30,17,04,18.30
2010,06,30,17,05,18.30
2010,06,30,17,06,18.30
2010,06,30,17,07,18.30
2010,06,30,17,08,18.20
2010,06,30,17,09,18.00
2010,06,30,17,10,17.90
2010,06,30,17,11,17.90
2010,06,30,17,12,17.80
2010,06,30,17,13,17.70
2010,06,30,17,14,17.70
2010,06,30,17,15,17.60
2010,06,30,17,16,17.60
2010,06,30,17,17,17.60
2010,06,30,17,18,17.70
2010,06,30,17,19,17.70
2010,06,30,17,20,17.70
2010,06,30,17,21,17.70
2010,06,30,17,22,17.70
2010,06,30,17,23,17.70
2010,06,30,17,24,17.70
2010,06,30,17,25,17.70
2010,06,30,17,26,17.70
2010,06,30,17,27,17.70
2010,06,30,17,28,17.60